{"data":{"norad_id":44819,"intl_designator":"2019-082A","name":"GAOFEN-12 01","alt_names":[],"object_type":"PAYLOAD","status":"ACTIVE","operator":null,"country":"PRC","launch_date":"2019-11-27","launch_site_code":"TAISC","launch_vehicle":null,"mission":null,"orbit_class":"UNKNOWN","rcs_meters":null,"size_class":null,"mass_kg":null,"dimensions":null,"purposes":["earth_obs"],"wikipedia_slug":null,"has_3d_model":false,"image_url":null,"decayed_at":null,"tle_current":{"epoch":"2026-05-25T04:00:51.048864Z","epoch_age_seconds":60559,"freshness":"FRESH","line1":"1 44819U 19082A   26145.16725751  .00000300  00000+0  45886-4 0  9995","line2":"2 44819  97.8105 152.1549 0002491  98.5615 261.5880 14.80436108350682","mean_motion":14.80436108,"eccentricity":0.0002491,"inclination_deg":97.8105,"raan_deg":152.1549,"arg_perigee_deg":98.5615,"mean_anomaly_deg":261.588,"bstar":4.5886e-5,"rev_number":35068,"period_min":97.268635385108,"perigee_km":626.2026759315,"apogee_km":629.69310742453,"semimajor_km":7006.084891678,"source":"CELESTRAK","updated_at":"2026-05-25T13:38:12.832681Z"}}}